Location: Cisewo
(53.3833°N, 14.9000°E)
Time: 01:35:28
(UTC+00:00)

POLYITAN 1 - Pass Details

Date: 01 October 2021
Orbit: 588 x 611 km, 97.9° (Epoch: 27 October)

Event Time Altitude Azimuth Distance (km) Brightness Sun altitude
Rises 02:33:00 0° 1° (N) 2,860 ? -22.4°
Reaches altitude 10° 02:36:34 10° 329° (NNW) 1,945 ? -21.9°
Enters shadow 02:36:55 11° 324° (NW) 1,900 ? -21.9°
